LEMUR-2-NOGUECORREIG

Last updated on Wed Feb 14 2018 16:20:29 GMT+0000 (Coordinated Universal Time)

1 41996U 17008BA 18045.46996632 .00001765 00000-0 76935-4 0 9991 2 41996 97.4658 110.9316 0010391 84.1989 276.0432 15.23484592 54639
UTC large
Height (km)
Speed (km/s)
/
Latitude / Longitude
Inclination (degrees)
Orbital Period (minutes)
Azimuth
Elevation
Range (km)
Doppler Factor

Next 0 passes for location: London (51.5072 / 0.1276)

Sorry there are no passes over London.